| time (UTC) | temp F | wind direction | speed knots | gust knots | rain 1hr in | rain 24hr in | rain mn in | humidity % | barometer mb |
| 20260507020100 | 56 | 188 | 2.6 | 7.0 | 0.01 | 0.11 | 0.11 | 93 | 1006.4 |
| 20260507014558 | 57 | 281 | 0.0 | 6.1 | 0.01 | 0.11 | 0.11 | 94 | 1006.2 |
| 20260507013053 | 57 | 271 | 0.0 | 4.3 | 0.01 | 0.11 | 0.11 | 94 | 1006.2 |
| 20260507011552 | 58 | 261 | 2.6 | 7.8 | 0.00 | 0.10 | 0.10 | 94 | 1005.7 |
| 20260507010048 | 59 | 236 | 3.5 | 12.2 | 0.00 | 0.10 | 0.10 | 95 | 1005.2 |
| 20260507004549 | 59 | 197 | 3.5 | 11.3 | 0.00 | 0.10 | 0.10 | 95 | 1005.0 |
| 20260507003045 | 59 | 159 | 7.0 | 13.9 | 0.00 | 0.10 | 0.10 | 95 | 1004.9 |
| 20260507001543 | 59 | 157 | 3.5 | 11.3 | 0.00 | 0.10 | 0.10 | 94 | 1005.1 |
| 20260507000043 | 59 | 186 | 3.5 | 7.0 | 0.00 | 0.10 | 0.10 | 94 | 1005.0 |
| 20260506234553 | 59 | 138 | 2.6 | 7.8 | 0.00 | 0.10 | 0.10 | 94 | 1004.7 |
| 20260506233049 | 59 | 171 | 5.2 | 10.4 | 0.01 | 0.10 | 0.10 | 94 | 1004.7 |
| 20260506231544 | 59 | 192 | 4.3 | 13.9 | 0.01 | 0.10 | 0.10 | 94 | 1004.6 |
| 20260506230040 | 59 | 214 | 5.2 | 11.3 | 0.01 | 0.10 | 0.10 | 94 | 1004.6 |
| 20260506224541 | 59 | 168 | 3.5 | 11.3 | 0.02 | 0.10 | 0.10 | 94 | 1004.4 |
| 20260506223038 | 59 | 234 | 5.2 | 9.6 | 0.01 | 0.09 | 0.09 | 94 | 1004.5 |
| 20260506221539 | 59 | 179 | 5.2 | 12.2 | 0.01 | 0.09 | 0.09 | 94 | 1004.5 |
| 20260506220038 | 59 | 178 | 4.3 | 12.2 | 0.02 | 0.09 | 0.09 | 94 | 1004.5 |
| 20260506214537 | 59 | 202 | 4.3 | 18.2 | 0.01 | 0.08 | 0.08 | 93 | 1004.5 |
| 20260506213039 | 59 | 159 | 6.1 | 12.2 | 0.02 | 0.08 | 0.08 | 93 | 1004.6 |
| 20260506211535 | 59 | 172 | 5.2 | 13.0 | 0.02 | 0.08 | 0.08 | 93 | 1004.5 |
| 20260506210036 | 59 | 188 | 5.2 | 10.4 | 0.02 | 0.07 | 0.07 | 93 | 1004.5 |
| 20260506204536 | 59 | 181 | 4.3 | 13.9 | 0.02 | 0.07 | 0.07 | 93 | 1004.6 |
| 20260506203039 | 59 | 171 | 6.1 | 13.0 | 0.02 | 0.06 | 0.06 | 92 | 1004.8 |
| 20260506201537 | 60 | 180 | 5.2 | 13.0 | 0.01 | 0.05 | 0.05 | 92 | 1004.9 |
| 20260506200038 | 60 | 140 | 5.2 | 13.9 | 0.01 | 0.05 | 0.05 | 91 | 1005.1 |
| 20260506194530 | 60 | 164 | 4.3 | 15.6 | 0.01 | 0.05 | 0.05 | 91 | 1005.1 |
| 20260506193027 | 60 | 184 | 5.2 | 13.0 | 0.01 | 0.04 | 0.04 | 90 | 1005.5 |
| 20260506191527 | 60 | 164 | 4.3 | 12.2 | 0.01 | 0.04 | 0.04 | 90 | 1005.6 |
| 20260506190026 | 61 | 194 | 7.8 | 16.5 | 0.02 | 0.04 | 0.04 | 90 | 1005.6 |
| 20260506184529 | 61 | 171 | 7.0 | 15.6 | 0.02 | 0.04 | 0.04 | 90 | 1005.6 |
| 20260506183024 | 61 | 153 | 5.2 | 18.2 | 0.02 | 0.03 | 0.03 | 89 | 1005.6 |
| 20260506181523 | 61 | 186 | 5.2 | 13.0 | 0.03 | 0.03 | 0.03 | 88 | 1005.7 |
| 20260506180027 | 62 | 178 | 4.3 | 13.0 | 0.02 | 0.02 | 0.02 | 87 | 1005.6 |
| 20260506174522 | 63 | 193 | 3.5 | 11.3 | 0.01 | 0.01 | 0.01 | 85 | 1005.6 |
| 20260506173027 | 64 | 159 | 7.0 | 13.9 | 0.01 | 0.01 | 0.01 | 82 | 1006.3 |
| 20260506171520 | 65 | 177 | 5.2 | 14.8 | 0.00 | 0.00 | 0.00 | 79 | 1006.6 |
| 20260506170021 | 66 | 207 | 7.0 | 18.2 | 0.00 | 0.00 | 0.00 | 76 | 1006.7 |
| 20260506164519 | 68 | 203 | 8.7 | 17.4 | 0.00 | 0.00 | 0.00 | 72 | 1006.5 |
| 20260506163025 | 69 | 188 | 4.3 | 13.0 | 0.00 | 0.00 | 0.00 | 71 | 1006.2 |
| 20260506161517 | 69 | 183 | 6.1 | 14.8 | 0.00 | 0.00 | 0.00 | 70 | 1006.4 |
| 20260506160015 | 68 | 171 | 1.7 | 12.2 | 0.00 | 0.00 | 0.00 | 72 | 1006.8 |
| 20260506154510 | 68 | 168 | 4.3 | 13.0 | 0.00 | 0.00 | 0.00 | 72 | 1007.1 |
| 20260506153007 | 67 | 172 | 1.7 | 10.4 | 0.00 | 0.00 | 0.00 | 73 | 1007.2 |
| 20260506151506 | 67 | 168 | 4.3 | 13.0 | 0.00 | 0.00 | 0.00 | 75 | 1007.2 |
| 20260506150002 | 66 | 202 | 5.2 | 12.2 | 0.00 | 0.00 | 0.00 | 76 | 1007.6 |
| 20260506144503 | 65 | 165 | 4.3 | 12.2 | 0.00 | 0.00 | 0.00 | 77 | 1007.7 |
| 20260506143100 | 65 | 251 | 3.5 | 11.3 | 0.00 | 0.00 | 0.00 | 78 | 1007.7 |
| 20260506141558 | 64 | 150 | 6.1 | 11.3 | 0.00 | 0.00 | 0.00 | 79 | 1007.7 |
| 20260506140058 | 64 | 168 | 3.5 | 13.9 | 0.00 | 0.00 | 0.00 | 80 | 1007.7 |
| 20260506134552 | 63 | 157 | 4.3 | 11.3 | 0.00 | 0.00 | 0.00 | 81 | 1007.7 |
| 20260506133049 | 62 | 191 | 3.5 | 11.3 | 0.00 | 0.00 | 0.00 | 82 | 1007.6 |
| 20260506131553 | 62 | 180 | 5.2 | 13.9 | 0.00 | 0.00 | 0.00 | 83 | 1007.8 |
| 20260506130101 | 61 | 159 | 6.1 | 13.0 | 0.00 | 0.00 | 0.00 | 83 | 1007.8 |
| 20260506124554 | 61 | 169 | 7.0 | 13.0 | 0.00 | 0.00 | 0.00 | 83 | 1008.2 |
| 20260506123046 | 61 | 137 | 2.6 | 9.6 | 0.00 | 0.00 | 0.00 | 84 | 1008.2 |
| 20260506121546 | 60 | 196 | 1.7 | 10.4 | 0.00 | 0.00 | 0.00 | 84 | 1008.2 |
| 20260506120046 | 60 | 167 | 4.3 | 13.0 | 0.00 | 0.00 | 0.00 | 84 | 1008.3 |
| 20260506114545 | 60 | 180 | 3.5 | 11.3 | 0.00 | 0.00 | 0.00 | 84 | 1008.2 |
| 20260506113051 | 60 | 210 | 5.2 | 11.3 | 0.00 | 0.00 | 0.00 | 86 | 1008.2 |
| 20260506111543 | 59 | 194 | 5.2 | 9.6 | 0.00 | 0.00 | 0.00 | 87 | 1008.2 |
| 20260506110051 | 58 | 171 | 4.3 | 8.7 | 0.00 | 0.00 | 0.00 | 87 | 1008.6 |
| 20260506104547 | 58 | 195 | 4.3 | 8.7 | 0.00 | 0.00 | 0.00 | 87 | 1008.6 |
| 20260506103045 | 58 | 178 | 3.5 | 10.4 | 0.00 | 0.00 | 0.00 | 87 | 1008.4 |
| 20260506101548 | 58 | 171 | 4.3 | 10.4 | 0.00 | 0.00 | 0.00 | 87 | 1008.2 |
| 20260506100045 | 58 | 161 | 3.5 | 13.0 | 0.00 | 0.00 | 0.00 | 86 | 1008.2 |
| 20260506094528 | 58 | 186 | 4.3 | 12.2 | 0.00 | 0.00 | 0.00 | 86 | 1008.2 |
| 20260506093038 | 58 | 190 | 2.6 | 8.7 | 0.00 | 0.00 | 0.00 | 85 | 1008.2 |
| 20260506091625 | 58 | 180 | 4.3 | 10.4 | 0.00 | 0.00 | 0.00 | 85 | 1008.2 |
| 20260506090025 | 58 | 173 | 6.1 | 10.4 | 0.00 | 0.00 | 0.00 | 84 | 1008.2 |
| 20260506084521 | 58 | 198 | 4.3 | 13.0 | 0.00 | 0.00 | 0.00 | 83 | 1008.2 |
| 20260506083017 | 59 | 203 | 3.5 | 8.7 | 0.00 | 0.00 | 0.00 | 83 | 1008.4 |
| 20260506081515 | 59 | 164 | 4.3 | 9.6 | 0.00 | 0.00 | 0.00 | 82 | 1008.3 |
| 20260506073018 | 60 | 140 | 3.5 | 9.6 | 0.00 | 0.00 | 0.00 | 80 | 1008.3 |
| 20260506071509 | 60 | 178 | 2.6 | 9.6 | 0.00 | 0.00 | 0.00 | 80 | 1008.3 |
| 20260506061600 | 61 | 148 | 4.3 | 14.8 | 0.00 | 0.00 | 0.00 | 77 | 1007.9 |
| 20260506044638 | 63 | 181 | 5.2 | 11.3 | 0.00 | 0.00 | 0.00 | 71 | 1008.3 |
| 20260506043046 | 63 | 186 | 3.5 | 13.9 | 0.00 | 0.00 | 0.00 | 71 | 1008.3 |
| 20260506041556 | 63 | 183 | 3.5 | 13.0 | 0.00 | 0.00 | 0.00 | 71 | 1008.3 |
| 20260506040040 | 63 | 201 | 6.1 | 11.3 | 0.00 | 0.00 | 0.00 | 70 | 1008.3 |
| 20260506034605 | 63 | 159 | 5.2 | 10.4 | 0.00 | 0.00 | 0.00 | 70 | 1008.4 |
| 20260506033039 | 63 | 231 | 7.0 | 12.2 | 0.00 | 0.00 | 0.00 | 69 | 1008.6 |
| 20260506031542 | 63 | 167 | 7.8 | 17.4 | 0.00 | 0.00 | 0.00 | 69 | 1008.6 |
| 20260506030040 | 63 | 165 | 6.1 | 10.4 | 0.00 | 0.00 | 0.00 | 68 | 1008.7 |
| 20260506024539 | 64 | 163 | 3.5 | 10.4 | 0.00 | 0.00 | 0.00 | 68 | 1008.6 |
| 20260506023059 | 64 | 171 | 3.5 | 14.8 | 0.00 | 0.00 | 0.00 | 67 | 1008.4 |
| 20260506021537 | 64 | 168 | 3.5 | 12.2 | 0.00 | 0.00 | 0.00 | 66 | 1008.3 |